Regional Weather Roundup
Issued by NWS

Home | Current Version | Previous Version | Graphics & Text | Print | Product List | Glossary On
Versions: 1 2 3 4 5 6 7 8 9 10 11 12 13 14 15 16 17 18 19 20 21 22 23 24 25 26 27 28 29 30 31 32 33 34 35 36 37 38 39 40 41 42 43 44 45 46 47 48 49 50
147
ASUS43 KDTX 300910
RWRMI
MICHIGAN HOURLY REGIONAL WEATHER ROUNDUP
NATIONAL WEATHER SERVICE DETROIT/PONTIAC MI
500 AM EDT SAT JUL 30 2016

NOTE: "FAIR" INDICATES FEW OR NO CLOUDS BELOW 12,000 FEET WITH NO
SIGNIFICANT WEATHER AND/OR OBSTRUCTION TO VISIBILITY.

MIZ047>049-052>055-059>063-066>070-074>076-081>083-301000-
SOUTHEAST LOWER MICHIGAN

CITY           SKY/WX    TMP DP  RH WIND       PRES   REMARKS
ADRIAN         CLOUDY    64  61  90 NE6       29.95S
ALMA           LGT RAIN  63  61  93 NW8       30.01R
ANN ARBOR      CLOUDY    67  61  81 N3        29.94F
BAD AXE        CLOUDY    67  58  73 E5        30.00F
CARO           RAIN      64  61  88 NE8       29.98S
DETROIT CITY   CLOUDY    69  64  84 N6        29.94S
DETROIT        LGT RAIN  68  63  84 NE7       29.94S
FLINT          CLOUDY    70  59  68 NE9       29.97F
GROSSE ILE     CLOUDY    71  65  83 NE7       29.92S
HILLSDALE      CLOUDY    63  60  90 NE5       29.95F
HOWELL         CLOUDY    65  60  84 CALM      29.96F

CITY           SKY/WX    TMP DP  RH WIND       PRES   REMARKS
JACKSON        CLOUDY    62  60  93 N5        29.96F
LAMBERTVILLE   CLOUDY    67  62  82 CALM      29.93S
LANSING        CLOUDY    63  59  87 NW9       29.99S
LAPEER         FAIR      67  59  75 NE3       29.98S
MASON          CLOUDY    64  58  80 W7        29.97S
MONROE         CLOUDY    67  64  89 N6        29.92S
MT. CLEMENS    CLOUDY    68  64  86 NE7       29.94R
PONTIAC        CLOUDY    66  62  87 NE6       29.95F
PORT HOPE        N/A     71  59  65 E21       30.00S
PORT HURON     MOCLDY    66  63  88 NE3       29.97S
TRI CITIES     CLOUDY    69  60  73 NE9       30.00S
MIDLAND        CLOUDY    64  58  82 N5        29.99F
TROY           CLOUDY    69  62  78 N6        29.96F
SAGINAW HB     MOCLDY    64  59  82 N5        29.98S
$$
MIZ043>046-050>051-056>058-064>065-071>073-077>080-301000-
SOUTHWEST LOWER MICHIGAN

CITY           SKY/WX    TMP DP  RH WIND       PRES   REMARKS
BATTLE CREEK   CLOUDY    63  60  90 NE8       29.97S
BENTON HARBOR  CLOUDY    67  60  78 NE8       29.93F
BIG RAPIDS     CLOUDY    61  57  88 CALM      30.01F
COLDWATER      MOCLDY    63  62  96 NE6       29.95F
FREMONT        MOCLDY    64  58  81 E8        30.00S
HOLLAND        CLOUDY    64  58  80 NE7       29.99R
GRAND RAPIDS   RAIN      62  59  90 E16       29.99S FOG
IONIA          LGT RAIN  61  59  94 NE13      29.99S
KALAMAZOO      CLOUDY    65  60  84 N6        29.96S
LUDINGTON      CLOUDY    62  56  82 E6        30.00F
MARSHALL       CLOUDY    65  59  81 CALM      29.96S
MOUNT PLEASANT CLOUDY    62  56  81 N5        30.00F
MUSKEGON       LGT RAIN  63  62  97 SW5       30.01R
SOUTH HAVEN    CLOUDY    65  60  84 E6        29.95S
$$
MIZ016>042-301000-
NORTHERN LOWER MICHIGAN

CITY           SKY/WX    TMP DP  RH WIND       PRES   REMARKS
ALPENA         PTCLDY    53  50  89 CALM      30.07R
BEAVER ISLAND  CLEAR     54  54 100 CALM      30.08S FOG
BELLAIRE       CLEAR     51  50  95 CALM      30.06S
CADILLAC       CLOUDY    55  52  92 CALM      30.04F
CHARLEVOIX     PTCLDY    55  52  91 CALM      30.09S
FRANKFORT      CLEAR     64  51  64 E7        30.03S
GAYLORD        CLEAR     57  49  74 NE3       30.08R
GRAYLING       FOG       46  44  96 CALM      30.08R VSB 1/2
HARBOR SPRINGS PTCLDY    54  52  91 N3        30.07F
HOUGHTON LAKE  CLEAR     55  51  86 NE7       30.06S
MANISTEE       PTCLDY    61  54  77 E7        30.01F
OSCODA         MOCLDY    66  60  79 NE13      30.03F
PELLSTON       CLEAR     48  45  89 CALM      30.09R
ROGERS CITY    PTCLDY    51  48  90 CALM      30.08S
TRAVERSE CITY  CLEAR     55  51  86 CALM      30.04S
$$
MIZ007>008-015-301000-
EASTERN UPPER MICHIGAN

CITY           SKY/WX    TMP DP  RH WIND       PRES   REMARKS
KINROSS        CLEAR     55  53  93 CALM      30.09R
MACKINAC ISLAN CLEAR     58  58 100 CALM      30.08S
NEWBERRY       CLEAR     52  50  93 CALM      30.08S
S. S. MARIE    CLEAR     58  55  90 CALM      30.08R
MUNISING         N/A     51  50  96 SW5       30.07F
$$
MIZ004>006-011>014-085-301000-
CENTRAL UPPER MICHIGAN

CITY           SKY/WX    TMP DP  RH WIND       PRES   REMARKS
MANISTIQUE     CLEAR     51  50  97 N5        30.08S
ESCANABA       CLEAR     55  52  88 CALM      30.06S
MENOMINEE      CLEAR    N/A N/A N/A N6        30.05S
SAWYER-GWINN   PTCLDY    52  48  87 CALM      30.09S
$$
MIZ001>003-009>011-084-301000-
WESTERN UPPER MICHIGAN

CITY           SKY/WX    TMP DP  RH WIND       PRES   REMARKS
IRON MOUNTAIN  PTCLDY    54  50  86 N6        30.08R
HOUGHTON       CLEAR     57  55  93 E5        30.07S
COPPER HARBOR    N/A     56  53  90 W6        30.07S
IRONWOOD       MOCLDY    57  55  94 CALM      30.05S
$$

ABBREVIATIONS USED IN REMARKS
   TC - TEMPERATURE IN CELSIUS
  WCI - WIND CHILL INDEX
   HX - HEAT INDEX
  VSB - VISIBILITY





USA.gov is the U.S. government's official web portal to all federal, state and local government web resources and services.